Regional Weather Roundup
Issued by NWS

Home | Current Version | Previous Version | Graphics & Text | Print | Product List | Glossary On
Versions: 1 2 3 4 5 6 7 8 9 10 11 12 13 14 15 16 17 18 19 20 21 22 23 24 25 26 27 28 29 30 31 32 33 34 35 36 37 38 39 40 41 42 43 44 45 46 47 48 49 50
000
ASUS43 KMKX 291721
RWRWI

WISCONSIN REGIONAL WEATHER ROUNDUP
NATIONAL WEATHER SERVICE MILWAUKEE/SULLIVAN WI
1200 PM CDT MON JUN 29 2015

NOTE: "FAIR" INDICATES FEW OR NO CLOUDS BELOW 12,000 FEET WITH NO
SIGNIFICANT WEATHER AND/OR OBSTRUCTIONS TO VISIBILITY.

WIZ001-002-006>008-014>016-023>028-291800-
NORTHWEST WISCONSIN

CITY           SKY/WX    TMP DP  RH WIND       PRES   REMARKS
SUPERIOR ARPT  LGT RAIN  60  57  90 NW5       29.78R
ASHLAND        MOSUNNY   78  66  66 VRB6      29.74F HX  80
HAYWARD        MOSUNNY   75  63  66 W3        29.80F
SIREN          MOSUNNY   77  62  59 W10       29.81S
CUMBERLAND     MOSUNNY   77  61  57 W9        29.82S
RICE LAKE      PTSUNNY   76  63  63 SW3       29.83S
CHETEK         MOSUNNY   76  65  70 NW5       29.82S
LADYSMITH      MOSUNNY   75  63  65 W5        29.83S
EAU CLAIRE     MOSUNNY   76  64  66 W7        29.81S
MENOMONIE      SUNNY     75  66  72 W6        29.83S
NEW RICHMOND   MOSUNNY   78  62  58 NW6       29.83S HX  80
OSCEOLA        MOSUNNY   79  63  58 W8        29.84S HX  80
$$

WIZ003>005-009-010-017-018-291800-
NORTH CENTRAL WISCONSIN

CITY           SKY/WX    TMP DP  RH WIND       PRES   REMARKS
MANITOWISH WTR PTSUNNY   72  63  73 W6        29.81R
ARBOR VITAE    MOSUNNY   72  60  64 NW3       29.81S
WOODRUFF       MOSUNNY   72  60  64 NW3       29.81S
RHINELANDER    MOSUNNY   74  56  53 MISG      29.83S
EAGLE RIVER    MOSUNNY   72  56  57 W7        29.81S
LAND O LAKES   PTSUNNY   72  58  61 W3        29.82S
PHILLIPS       MOSUNNY   73  61  64 NW6       29.81S
TOMAHAWK       MOSUNNY   72  57  58 NW3       29.82S
MEDFORD        CLOUDY    71  60  68 CALM      29.83R
MERRILL        MOSUNNY   73  57  58 CALM      29.83R
$$

WIZ029-030-035-036-043>047-291800-
CENTRAL WISCONSIN

CITY           SKY/WX    TMP DP  RH WIND       PRES   REMARKS
WAUSAU         SUNNY     73  59  61 SW5       29.80S
MOSINEE        PTSUNNY   73  61  64 W5        29.83S
MARSHFIELD     PTSUNNY   73  59  61 CALM      29.83S
STEVENS POINT  PTSUNNY   71  59  66 SW7       29.82S
WAUPACA        CLOUDY    73  62  67 S3        29.82S
WAUTOMA        CLOUDY    71  65  81 SW8       29.83F
WISC RAPIDS    MOSUNNY   74  59  59 VRB6      29.83F
CAMP DOUGLAS   PTSUNNY   72  72 100 VRB5      29.83S
$$

WIZ011>013-019>022-031-037>040-048>050-291800-
NORTHEAST WISCONSIN

CITY           SKY/WX    TMP DP  RH WIND       PRES   REMARKS
ANTIGO         PTSUNNY   72  61  67 W3        29.82S
SHAWANO        CLOUDY    77  58  52 S7        29.81S
OCONTO         CLOUDY    74  57  56 S7        29.81S
STURGEON BAY   MOSUNNY   73  52  46 SE12      29.84F
GREEN BAY      MOSUNNY   75  58  55 VRB3      29.82S
MANITOWOC      MOSUNNY   70  55  59 MISG      29.83S
APPLETON       PTSUNNY   72  57  60 SE8       29.82S
CLINTONVILLE   CLOUDY   N/A N/A N/A S8        29.81S
OSHKOSH        CLOUDY    74  60  61 S8        29.81S
$$

WIZ032>034-041-042-053>061-291800-
SOUTHWEST WISCONSIN

CITY           SKY/WX    TMP DP  RH WIND       PRES   REMARKS
LA CROSSE      MOSUNNY   74  63  68 VRB3      29.82S
SPARTA         MOSUNNY   73  60  62 NW5       29.84S
VIROQUA        PTSUNNY   73  62  68 NW8       29.84S
BOSCOBEL       PTSUNNY   77  63  61 NW5       29.82S
PRAIRIE DU CHI MOSUNNY   75  62  62 N8        29.83S
PLATTEVILLE    CLOUDY    71  63  75 NW6       29.85R
$$

WIZ056-057-062-063-064-067-068-291800-
SOUTH CENTRAL WISCONSIN

CITY           SKY/WX    TMP DP  RH WIND       PRES   REMARKS
REEDSBURG      MOSUNNY   71  61  69 NW6       29.82S
BARABOO/DELLS  PTSUNNY   74  59  58 W3        29.82S
LONE ROCK      MOSUNNY   76  62  62 VRB5      29.82S
MINERAL POINT  PTSUNNY   72  61  68 W5        29.84F
MADISON        PTSUNNY   74  62  66 VRB3      29.81F
MIDDLETON      PTSUNNY   74  61  63 CALM      29.83S
WATERTOWN      CLOUDY    71  65  80 S7        29.81S
MONROE         PTSUNNY   70  63  78 NW6       29.83S
JANESVILLE     NOT AVBL
$$

WIZ051-052-058>065-066-070>072-291800-
SOUTHEAST WISCONSIN

CITY           SKY/WX    TMP DP  RH WIND       PRES   REMARKS
MILWAUKEE      PTSUNNY   73  59  61 NE5       29.82F
WAUKESHA       PTSUNNY   70  59  68 SE5       29.84S
MILWAUKEE/TIMM CLOUDY    72  55  56 E6        29.83S
RACINE         CLOUDY    73  60  63 VRB5      29.84S
BURLINGTON     PTSUNNY   69  61  76 CALM      29.83R
KENOSHA        CLOUDY    71  62  73 CALM      29.83R
FOND DU LAC    PTSUNNY   73  60  63 S6        29.82S
SHEBOYGAN      MOSUNNY   74  60  61 S6        29.83R
WEST BEND      MOSUNNY   72  55  56 SE8       29.83S
JUNEAU         PTSUNNY   71  61  69 E8        29.83S
$$

LSZ147-162-291800-
LAKE SUPERIOR

STATION/POSITION TIME  TEMP    WIND        PRES    WAVE
                       AIR SEA DIR/SP/G            HT/PER
                 (UTC) (F)     (DEG/KT/KT) (MB)    (FT/S)
W MID LAKE BUOY  1650   47 38   50/  2/  4 1008.5R   0
DEVILS ISLAND    1700   63     260/ 18/ 20 1007.1S
SAXON HARBOR     1640   76      CALM  /  5 1007.5F
$$

LMZ867-665-643>646-291800-
LAKE MICHIGAN

STATION/POSITION TIME  TEMP    WIND        PRES    WAVE
                       AIR SEA DIR/SP/G            HT/PER
                 (UTC) (F)     (DEG/KT/KT) (MB)    (FT/S)
CHAMBERS ISLAND  1600   73     160/  3/  6 1009.5S
S GREEN BAY BUOY 1630   69 71  230/  4/  4 1011.1F
N MID LAKE BUOY  1650   54 48  210/  6/  8 1010.0S   0
NORTHPORT PIER   1600   67     140/  8/  9 1009.5F
ALGOMA LAKESHORE 1610          200/  6/  7   N/A
KEWAUNEE LAKESHO 1600   59     160/  8/  9 1009.7R
SHEBOYGAN LAKESH 1700   63     170/  9/  9 1010.3S
PORT WASHINGTON  1600   68     120/  1/  2 1010.8F
ATWATER BUOY     1700   65 59   40/  4/  4 1011.5F
MILWAUKEE LAKESH 1700   67      70/  1/  2   N/A
KENOSHA   LAKESH 1700   64      80/  6/  6 1009.8S
$$

TC  - TEMPERATURE IN CELSIUS
VSB - VISIBILITY IN STATUTE MILES
WCI - WIND CHILL INDEX
HX  - HEAT INDEX



USA.gov is the U.S. government's official web portal to all federal, state and local government web resources and services.